This is the latest recevied weather packets stored in our database for station/object IW2NIA-3. If no packets are shown the sender has not sent any weather packets the latest 10 day(s).
| Time | Temp. | Humidity | Pressure | Rain* | Wind** | Luminosity | Snow |
|---|---|---|---|---|---|---|---|
| 1778043822 | 12.78° C | 97% | 1007.9 hPa | 0.51 mm | - | - | - |
| 1778042920 | 12.78° C | 97% | 1008.2 hPa | 0.51 mm | - | - | - |
| 1778042013 | 12.78° C | 97% | 1008.3 hPa | 0.51 mm | - | - | - |
| 1778041112 | 12.78° C | 97% | 1008.4 hPa | 0.51 mm | - | - | - |
| 1778040226 | 12.78° C | 97% | 1008.6 hPa | 0.25 mm | - | - | - |
| 1778039316 | 12.78° C | 97% | 1008.5 hPa | 0.51 mm | - | - | - |
| 1778038424 | 12.78° C | 97% | 1008.5 hPa | 0.76 mm | - | - | - |
| 1778037524 | 12.78° C | 97% | 1008.6 hPa | 0.76 mm | - | - | - |
| 1778036623 | 12.78° C | 97% | 1008.6 hPa | 1.02 mm | - | - | - |
| 1778035719 | 12.78° C | 97% | 1009.2 hPa | 0.76 mm | - | - | - |
| 1778034810 | 12.78° C | 97% | 1009.3 hPa | 0.76 mm | - | - | - |
| 1778033912 | 13.33° C | 97% | 1009.6 hPa | 0.51 mm | - | - | - |
| 1778033027 | 13.33° C | 97% | 1009.6 hPa | 0.25 mm | - | - | - |
| 1778032116 | 13.33° C | 96% | 1009.6 hPa | 0.76 mm | - | - | - |
| 1778031216 | 13.33° C | 96% | 1009.6 hPa | 2.54 mm | - | - | - |
| 1778030306 | 13.33° C | 96% | 1009.7 hPa | 2.54 mm | - | - | - |
| 1778029423 | 13.33° C | 96% | 1009.8 hPa | 2.54 mm | - | - | - |
| 1778028517 | 13.33° C | 96% | 1010 hPa | 2.03 mm | - | - | - |
| 1778027612 | 13.33° C | 96% | 1010.2 hPa | 0 mm | - | - | - |
| 1778026709 | 13.33° C | 96% | 1010.3 hPa | 0 mm | - | - | - |
| 1778025824 | 13.33° C | 96% | 1010.5 hPa | 0 mm | - | - | - |
| 1778024917 | 12.78° C | 96% | 1010.7 hPa | 0 mm | - | - | - |
| 1778024012 | 12.78° C | 96% | 1010.9 hPa | 0 mm | - | - | - |
| 1778023125 | 12.78° C | 96% | 1010.9 hPa | 0 mm | - | - | - |
| 1778022217 | 12.78° C | 96% | 1011 hPa | 0 mm | - | - | - |
* Rain latest hour (hover to see other rain measurements)
** Current wind speed in m/s (hover to see current wind gust speed)